RH
35 33 34 37 35 32 32 31 31 32 33 36 37 36 34 32 32 32 31 29 27 26 26 25 24 23 22 21 20 19 19 18 18 18 18 18 18 18 19 19 20 19 19 19 18 18 19 21 25 30 34 36 40 44 46 45 44 45 51 60 70 75 77 76 74 71 65 59 56 54 53 50 46 41 37 35 35 34 28 22 16 12 9 8 8 7
33 33 35 35 32 31 31 31 31 31 33 35 35 35 34 33 32 31 31 28 27 26 26 25 24 23 22 21 20 19 19 19 18 19 18 18 18 18 19 19 19 19 19 18 18 18 19 22 26 30 34 36 39 42 45 45 44 46 52 62 72 77 78 77 76 73 68 63 59 58 56 54 50 45 39 35 33 32 28 22 16 12 10 8 8 7
33 34 35 32 30 30 31 32 32 32 33 34 34 34 34 33 31 30 29 28 26 26 26 26 25 24 22 22 21 20 20 19 19 19 19 18 19 18 19 19 19 19 19 18 18 19 20 23 27 31 34 36 38 42 44 45 46 49 55 65 74 79 79 78 78 76 71 66 62 59 58 57 54 48 40 34 30 29 27 22 17 13 10 8 8 7
34 34 32 30 29 29 31 32 32 33 34 36 35 33 33 32 31 30 28 27 27 27 27 26 25 24 23 22 22 21 20 20 19 19 19 19 19 19 18 19 19 19 18 18 18 19 21 24 28 33 36 37 38 42 46 47 49 52 59 69 77 80 80 79 79 78 74 69 64 60 59 57 55 50 43 35 31 29 28 27 21 16 12 9 8 7
33 31 29 28 29 30 32 33 34 36 38 38 35 32 31 31 31 30 28 27 28 28 27 26 26 25 25 24 23 22 21 21 20 19 19 19 19 19 18 18 18 18 18 18 19 20 22 26 30 35 38 38 39 43 47 50 52 55 62 72 78 80 80 81 81 79 77 72 67 62 60 59 55 51 47 41 36 32 30 30 26 19 14 10 8 7
33 31 30 29 31 32 34 36 38 39 39 37 33 30 29 30 31 31 30 30 30 30 28 28 28 26 25 25 24 23 22 21 20 19 19 19 19 18 18 18 18 18 19 19 19 21 23 27 32 37 39 40 41 44 49 53 54 57 63 73 80 81 81 81 81 80 79 75 70 65 62 61 58 54 49 44 38 33 30 30 27 21 14 11 8 7
34 32 31 32 34 36 37 38 39 38 36 34 31 30 30 30 33 34 33 33 32 30 29 29 28 27 26 26 25 24 23 21 20 19 19 19 18 18 18 18 17 18 19 19 19 21 24 28 33 37 39 40 41 45 50 53 55 58 63 73 81 83 82 82 81 81 80 76 71 67 63 61 58 54 49 43 37 31 27 27 26 21 15 11 9 7
35 34 34 35 37 38 39 38 36 35 33 32 31 30 31 33 35 36 36 35 33 31 31 30 28 27 27 27 26 24 23 22 20 19 19 19 18 18 18 17 17 18 19 19 19 21 24 27 31 35 38 40 42 46 51 54 56 58 63 73 81 84 84 83 82 81 79 76 72 68 63 60 56 52 48 42 37 31 26 26 26 22 17 13 10 8
37 37 37 37 38 38 38 36 35 34 33 32 32 33 35 36 37 38 38 36 34 32 31 30 29 28 27 27 26 25 23 22 21 20 19 19 18 18 18 18 18 18 19 19 19 20 23 26 29 33 35 38 42 47 52 55 57 60 65 73 81 84 85 83 81 80 79 75 72 68 63 60 56 51 46 41 37 31 26 26 26 24 20 15 11 9
37 37 37 37 37 37 36 35 34 33 34 34 35 36 36 37 38 39 39 36 34 32 31 30 29 28 27 26 25 24 23 23 22 21 20 19 19 18 18 18 18 18 18 19 19 20 22 24 27 30 34 38 43 49 53 56 59 62 67 74 81 84 85 84 82 80 78 75 72 68 63 59 56 51 46 41 37 32 27 26 26 25 22 17 13 10
37 36 35 35 35 35 34 33 33 34 35 37 37 38 38 39 40 40 37 35 34 33 32 30 27 26 25 25 24 23 23 23 22 21 20 19 19 18 18 18 18 18 18 19 20 20 21 23 25 29 33 38 45 51 56 59 62 64 69 76 81 84 86 86 84 81 78 75 71 67 63 58 55 51 46 41 37 33 27 25 26 26 23 19 14 11
36 35 35 34 33 33 33 33 34 35 37 39 39 40 41 41 40 38 37 37 37 36 33 29 25 24 24 23 23 23 22 22 22 21 20 20 19 19 19 18 18 18 18 19 20 20 21 22 24 28 32 39 47 54 59 63 65 67 71 78 82 85 87 87 86 83 79 75 71 66 61 57 53 49 45 40 36 32 26 24 25 25 23 20 15 12
35 35 34 33 32 32 33 33 34 36 38 39 40 40 40 39 39 40 39 39 39 37 32 27 24 23 23 22 22 22 22 22 22 21 21 20 19 19 19 18 18 18 18 19 20 20 21 21 24 28 32 40 49 58 63 66 68 70 74 79 84 86 88 90 88 85 81 76 71 66 60 56 52 47 43 38 34 30 25 22 23 24 23 20 16 12
36 35 34 33 33 33 34 35 36 37 38 39 39 39 39 38 38 38 36 36 37 35 30 26 23 22 23 22 21 21 21 22 21 21 20 20 19 19 19 19 19 18 19 19 20 20 21 22 24 28 33 42 53 61 67 70 70 72 76 81 86 88 89 91 90 86 81 75 71 66 61 56 51 46 41 36 32 29 24 20 21 23 22 20 16 12
36 36 35 35 35 35 35 36 37 38 38 39 40 40 40 39 37 35 33 32 33 32 30 25 22 21 22 22 22 21 21 21 21 20 20 19 19 19 19 19 19 19 19 19 20 21 21 22 24 29 35 45 57 65 70 72 72 74 79 84 88 90 91 93 92 86 80 74 70 65 61 56 51 45 40 35 30 27 23 19 20 22 22 20 16 12
37 37 37 36 36 36 36 36 36 37 38 39 40 41 40 39 36 34 33 32 31 31 29 26 22 20 21 22 22 22 21 21 20 19 19 18 18 18 18 19 19 19 19 20 21 21 21 22 25 30 39 50 62 69 73 74 74 76 82 88 91 92 93 94 92 86 79 73 68 64 61 56 49 43 39 34 29 26 22 19 20 22 22 20 17 13
37 38 38 37 37 36 36 36 36 36 36 38 39 38 37 36 34 33 33 32 30 29 29 26 21 19 21 22 21 21 21 20 19 18 18 18 18 18 18 19 19 19 19 20 21 21 22 23 26 32 43 56 67 74 77 77 77 79 85 90 93 94 95 95 92 86 78 71 66 63 59 54 47 42 38 33 29 25 22 19 19 22 22 20 17 14
39 39 39 39 39 37 36 36 35 35 35 35 35 34 33 32 32 33 33 31 29 27 27 27 22 18 19 21 20 20 20 18 17 17 17 18 18 18 19 18 19 19 19 20 21 21 22 24 28 36 48 62 72 78 81 80 80 84 89 93 96 96 97 96 92 84 76 69 65 61 56 51 46 41 37 32 28 25 22 18 19 22 23 21 18 14
41 41 40 39 40 40 38 37 36 35 34 32 31 30 30 30 32 32 32 29 27 26 24 27 26 19 17 20 20 19 19 17 17 17 17 18 18 18 19 19 19 19 20 21 21 22 23 25 31 41 55 68 77 82 84 83 83 88 93 96 98 99 99 97 91 83 74 68 64 60 54 48 44 41 37 32 27 24 22 18 18 21 23 22 19 16
40 40 39 38 39 39 38 37 36 35 33 31 29 28 29 30 32 32 30 27 26 24 22 24 28 23 17 19 19 17 17 17 17 18 17 18 19 19 19 19 19 20 20 21 21 22 24 28 35 47 61 73 81 85 86 86 88 92 96 99 100 100 99 97 90 80 73 68 64 58 52 46 43 39 36 31 26 24 22 18 18 21 23 22 20 17
38 38 37 35 34 34 35 34 34 34 33 32 31 30 30 30 29 29 29 26 24 24 22 22 27 25 19 18 18 17 17 17 16 17 17 18 19 19 19 19 19 20 21 21 22 23 25 32 42 55 69 79 84 87 88 89 92 97 100 101 101 99 98 95 87 77 70 66 62 56 49 45 42 38 36 31 25 23 21 18 17 21 24 23 21 18
37 37 36 35 33 32 32 32 32 34 35 34 33 31 29 28 27 27 27 26 24 24 23 22 25 26 21 18 19 18 17 17 16 16 17 18 19 19 19 19 20 20 21 22 22 24 29 37 50 64 77 85 88 89 90 93 97 101 103 102 100 98 98 94 85 74 68 64 59 52 47 45 42 38 35 30 25 22 21 18 17 20 25 24 22 18
36 36 36 36 36 35 33 33 33 34 34 33 31 29 28 28 27 27 26 26 25 24 24 22 23 25 22 19 18 18 17 17 16 16 17 18 18 19 19 20 21 21 22 23 24 26 34 45 58 73 83 89 91 91 92 96 101 105 108 105 100 98 98 94 83 71 64 61 56 51 46 45 43 39 34 29 24 21 21 18 16 20 26 26 23 19
37 37 37 38 40 40 39 36 34 34 34 35 33 31 31 30 28 27 26 24 23 22 22 22 21 23 23 19 18 18 17 17 17 16 17 17 18 19 20 21 22 23 23 24 25 31 41 54 67 79 88 92 94 94 95 100 105 109 109 106 103 101 99 92 80 67 61 59 55 51 47 46 43 38 33 27 23 21 20 18 16 20 26 27 24 20
39 38 38 38 41 43 45 43 40 38 38 38 37 34 30 28 26 25 23 21 20 21 22 21 19 21 23 20 19 19 18 18 19 18 17 17 19 20 21 22 23 23 24 25 29 37 50 63 74 83 91 94 95 96 98 104 109 111 108 105 105 104 97 88 76 65 59 58 55 51 48 46 43 37 30 25 21 20 20 18 16 19 26 29 26 21
42 43 41 39 39 39 40 41 38 36 36 35 33 30 27 25 24 23 22 20 19 19 21 20 17 19 22 21 19 20 19 19 20 19 19 19 20 22 22 23 24 25 26 28 35 46 58 70 79 86 92 95 95 98 103 108 112 110 107 107 109 104 94 84 75 65 61 59 56 51 48 46 42 35 28 23 20 19 19 18 16 19 26 29 27 22
45 46 45 43 42 39 38 37 33 32 34 35 33 30 25 23 23 22 21 21 18 17 19 19 16 17 20 19 19 20 20 21 21 20 20 20 21 23 23 24 26 27 29 35 44 54 65 74 83 89 93 95 96 100 106 111 112 109 107 108 110 104 92 82 76 69 65 61 57 51 48 45 40 33 27 21 19 19 19 18 16 18 26 30 27 23
47 49 47 45 45 44 41 37 33 32 33 34 33 29 24 22 22 22 21 20 17 16 17 17 16 17 18 17 18 19 19 21 22 21 20 20 21 23 25 26 28 32 38 46 54 61 69 77 86 92 94 96 99 104 108 111 111 111 110 109 108 100 88 79 75 71 68 64 59 53 47 43 38 32 25 20 18 19 19 18 16 18 25 30 28 23
46 48 47 44 45 47 42 35 31 30 29 30 31 28 23 21 21 20 20 19 17 16 15 15 15 17 17 16 17 19 20 21 22 21 20 19 21 26 29 31 35 43 50 56 61 67 74 82 89 94 96 98 102 107 110 110 110 110 110 107 102 92 79 72 70 70 69 66 62 55 48 42 36 30 24 19 18 18 19 18 17 17 24 30 29 25
44 43 42 39 40 45 42 33 27 26 25 27 29 26 21 20 20 19 20 19 17 16 15 14 15 17 17 16 18 20 21 22 23 23 21 20 24 32 38 41 48 56 60 64 69 74 81 88 93 95 97 100 104 108 109 107 107 107 108 104 95 82 70 63 64 67 67 66 63 57 48 41 34 28 23 20 18 18 19 19 17 18 24 30 30 26
39 37 36 32 31 36 38 32 26 24 24 26 28 24 20 19 19 18 18 18 17 16 14 13 15 17 17 17 19 20 22 24 27 29 27 25 32 43 49 54 59 64 67 71 76 82 88 92 94 95 98 101 104 106 106 104 103 104 103 97 86 74 62 57 61 65 65 66 65 59 49 40 33 28 23 20 18 18 18 19 18 18 23 29 31 28
34 31 29 26 25 28 31 29 25 23 24 25 26 22 19 18 18 18 18 18 18 16 14 14 16 17 17 17 19 21 24 29 35 39 37 36 44 55 59 63 68 71 74 78 83 88 92 93 94 95 97 101 103 105 105 103 101 100 97 89 77 66 57 54 59 63 63 65 66 59 49 39 32 27 22 20 19 18 18 19 18 18 22 28 31 28
28 26 24 22 21 23 25 24 22 22 22 24 24 20 18 17 17 18 18 18 18 16 14 15 17 17 18 19 21 26 32 39 48 54 51 46 53 63 66 69 73 76 80 83 86 90 93 93 93 94 96 99 101 104 105 102 98 94 89 79 69 60 55 53 58 61 62 65 64 57 47 37 31 26 23 21 19 18 18 19 19 19 21 26 30 29
25 23 21 21 19 20 21 20 19 20 20 22 22 20 18 17 17 18 18 19 20 16 13 17 21 23 26 30 32 37 43 50 59 64 61 54 57 66 71 74 77 79 83 84 85 89 91 91 91 92 94 96 98 102 103 98 93 87 79 70 61 56 53 53 56 59 61 63 61 53 43 34 29 26 25 22 20 18 18 19 19 19 21 25 29 29
22 20 19 19 18 18 19 19 18 19 21 26 27 22 18 16 17 16 17 22 26 22 20 27 35 39 44 47 49 50 51 55 62 68 68 65 66 71 74 77 79 81 83 83 83 86 88 88 89 90 91 92 93 96 96 91 86 79 70 62 56 52 52 53 55 57 59 60 56 48 38 31 27 27 27 24 21 19 18 19 19 19 21 24 28 30
20 19 19 19 19 19 19 19 19 19 24 33 34 27 21 20 20 19 19 31 44 43 40 48 55 58 60 60 59 57 54 56 64 71 73 73 75 76 76 79 81 82 82 81 81 83 84 85 85 85 85 84 85 86 86 82 77 70 63 57 52 50 50 51 53 54 55 55 52 43 35 30 27 27 28 26 21 19 19 19 20 20 20 24 28 29
19 20 21 21 23 25 26 27 28 30 37 46 45 39 34 31 29 26 27 41 60 64 62 64 66 65 64 61 58 54 52 54 63 72 75 76 78 79 78 79 81 81 79 76 76 77 78 77 77 76 74 74 74 75 75 71 66 61 56 51 49 48 47 48 50 50 51 52 48 40 33 29 27 28 30 27 23 20 19 20 21 21 21 23 27 30
31 34 36 38 42 46 46 45 45 48 55 58 55 48 42 37 34 32 32 45 62 70 67 64 62 59 55 51 48 47 48 51 59 69 73 73 73 74 72 72 74 72 69 67 67 68 68 67 66 65 64 64 65 66 65 62 57 53 49 46 45 45 45 46 46 47 49 50 45 38 32 30 29 29 31 29 25 22 20 20 21 21 21 23 27 30
53 54 54 56 59 60 58 55 53 54 57 57 52 44 38 34 31 29 30 40 54 62 57 52 51 49 45 41 41 44 46 48 52 60 64 64 64 62 59 59 61 60 57 55 56 58 58 56 56 55 55 56 57 57 55 52 48 44 42 41 41 41 43 43 42 44 49 49 44 37 33 31 30 30 32 31 27 22 20 20 21 22 22 24 27 31
60 59 58 60 62 61 59 56 53 52 53 50 42 33 28 26 24 23 24 29 38 44 43 40 40 39 37 37 38 41 44 44 43 45 48 48 49 48 45 45 46 46 45 44 46 48 48 47 46 46 46 47 47 47 45 42 38 35 35 36 36 38 39 39 39 44 48 47 43 39 34 32 31 32 33 33 29 22 20 20 21 23 24 25 27 31
53 55 56 58 60 59 57 55 52 50 49 45 37 31 29 27 23 21 21 21 24 28 31 32 32 31 31 32 33 34 37 37 35 33 33 33 35 36 36 36 35 36 36 37 38 39 38 37 37 37 36 36 36 36 34 31 28 28 29 30 31 34 35 36 39 45 46 44 43 40 37 35 32 32 35 35 30 23 20 19 21 23 25 26 28 32
42 45 46 48 49 48 47 46 44 42 41 39 36 35 32 28 24 21 19 18 19 21 23 24 24 24 23 23 24 25 25 25 25 25 25 25 26 28 29 29 30 31 31 30 30 29 29 29 28 27 26 26 26 26 24 23 22 23 24 26 28 30 32 35 41 45 45 45 43 41 40 38 35 35 38 36 30 26 22 19 21 25 26 28 30 33
31 32 34 34 34 34 33 32 31 30 29 29 30 29 25 23 21 17 14 13 15 15 15 15 16 16 14 14 15 17 16 17 18 19 19 19 20 21 22 23 24 24 24 22 21 21 21 20 19 19 19 20 20 19 19 18 19 20 22 24 27 29 32 35 39 43 44 45 45 44 43 41 40 41 41 36 31 29 25 21 22 26 28 30 32 35
21 21 22 22 21 22 21 20 19 19 19 18 18 18 16 15 14 11 9 9 11 11 10 9 10 11 10 9 10 11 11 12 13 13 13 14 15 17 17 18 18 17 17 16 16 16 15 15 15 15 16 17 16 16 16 17 18 19 21 24 27 30 32 35 37 39 41 42 45 46 45 44 46 47 44 37 32 31 29 24 23 27 29 30 32 36
14 14 14 13 13 13 12 12 12 12 12 11 11 11 11 10 10 8 8 8 8 8 7 7 7 8 8 8 8 9 9 10 10 11 12 12 13 14 14 14 14 13 13 14 14 14 14 14 14 15 15 16 15 15 16 17 18 19 21 24 28 31 33 36 37 36 36 37 41 46 47 50 53 50 45 39 35 34 33 28 26 29 31 31 33 36
11 10 9 9 8 8 8 9 9 8 8 8 9 9 10 10 9 9 8 8 7 7 7 6 6 7 7 8 8 9 10 9 10 11 11 11 13 13 13 13 13 12 13 14 14 14 14 14 15 16 16 16 14 15 17 17 18 19 20 25 30 32 35 36 35 32 31 32 38 43 47 53 55 50 46 44 40 37 36 33 30 32 33 31 33 37
10 9 8 8 8 7 7 8 8 8 9 10 10 11 11 11 10 10 9 9 9 8 8 8 8 8 8 9 9 10 10 10 10 11 11 12 12 13 13 13 13 13 14 14 14 15 15 15 16 16 15 15 15 15 17 17 17 17 19 25 31 34 35 35 31 28 27 30 36 42 46 50 50 47 48 50 45 39 38 37 36 36 35 33 34 38
8 7 7 7 8 8 9 9 8 10 12 12 11 11 10 10 10 10 10 11 10 10 10 9 9 9 10 10 10 11 11 11 11 12 12 12 13 14 14 14 15 15 15 15 15 15 15 15 15 15 15 16 15 16 17 17 17 16 19 26 32 34 34 31 26 24 26 30 38 45 47 48 46 45 48 52 49 44 43 45 45 43 39 35 35 39
7 8 8 9 10 10 11 11 10 10 12 12 12 11 10 11 12 12 13 14 14 14 14 13 12 12 11 11 12 12 12 12 13 13 13 14 14 15 15 15 15 15 15 15 15 15 15 15 15 15 16 16 16 18 18 18 17 16 19 26 30 30 30 27 23 24 28 36 43 47 47 46 44 43 46 50 52 50 49 53 55 51 44 38 35 39
9 9 10 10 11 11 12 12 11 10 10 12 13 12 12 13 15 16 17 18 18 18 18 17 17 16 15 14 14 14 14 15 15 15 15 15 15 15 15 15 15 15 15 15 15 15 15 15 15 15 16 17 18 19 18 17 17 16 18 23 25 26 28 26 23 24 30 37 42 43 42 41 40 40 43 50 56 57 56 59 60 55 48 42 36 38
11 12 11 11 10 10 11 11 11 10 10 11 12 12 13 13 14 16 17 18 19 19 18 18 18 18 18 17 16 15 16 16 16 16 16 16 16 15 15 15 15 15 15 15 15 15 14 14 14 14 15 17 18 18 17 17 17 15 17 20 22 24 28 26 22 23 27 32 37 38 37 35 34 34 40 50 58 62 63 64 63 58 50 43 38 38
Wind_Speed
11 12 14 15 16 17 19 21 23 25 26 28 30 31 32 34 35 36 37 39 40 42 45 47 49 50 52 53 53 54 55 56 58 59 60 61 61 62 62 62 62 62 61 61 62 61 61 60 60 62 64 67 70 72 75 78 82 85 87 89 91 94 96 99 103 106 108 111 113 115 116 117 118 118 117 117 116 114 112 110 106 102 97 92 87 83
13 15 16 16 17 18 20 23 25 27 28 30 31 33 33 34 36 37 39 40 42 44 46 49 51 52 53 55 56 56 57 58 59 60 61 62 63 63 63 64 63 63 63 62 63 62 62 61 62 64 66 69 72 74 77 80 84 86 89 91 93 95 97 101 104 107 109 112 113 115 117 118 119 119 119 118 116 115 112 110 107 103 99 95 90 86
16 17 17 18 18 19 21 24 26 28 30 32 33 34 35 36 37 38 40 42 44 46 48 51 53 55 56 57 58 59 59 60 60 61 62 63 64 64 64 65 65 64 64 64 64 63 63 63 64 65 68 71 74 77 79 82 86 88 91 92 94 96 99 102 105 108 110 112 114 116 118 119 120 120 120 119 117 115 113 111 108 105 101 97 92 88
18 18 18 19 20 21 24 26 28 30 33 35 36 37 37 37 38 40 41 43 46 49 51 53 56 58 59 60 60 60 60 61 62 63 63 64 65 65 65 65 66 66 65 65 65 65 64 65 66 67 70 73 76 78 81 84 87 90 92 93 95 97 100 103 106 109 111 114 115 117 119 120 121 121 122 121 119 117 115 112 110 106 103 98 94 89
19 20 21 21 23 25 27 29 31 34 36 38 38 38 38 39 40 41 43 45 48 51 53 55 57 59 61 62 62 62 62 63 64 64 64 65 65 66 66 66 66 67 67 67 67 66 66 67 68 69 72 75 77 80 82 85 88 90 92 94 96 98 101 104 107 110 112 114 116 118 120 121 123 123 123 123 121 119 116 113 111 108 104 100 95 91
22 23 24 25 27 29 31 33 35 37 39 39 39 40 40 41 42 44 46 48 50 53 54 56 59 61 62 63 64 65 65 65 65 65 66 66 67 67 67 67 68 68 68 68 68 68 68 69 70 71 74 76 79 81 83 86 88 91 93 95 97 99 102 105 108 111 113 115 117 118 120 122 123 123 123 123 121 119 116 112 110 108 104 100 97 93
25 26 27 28 30 32 34 36 37 39 40 40 41 41 42 43 44 45 47 50 52 54 55 57 59 61 62 64 65 67 67 67 66 66 67 67 67 68 69 69 69 70 70 70 70 70 70 71 72 73 75 77 79 82 84 86 89 92 94 96 98 101 103 106 109 111 114 115 117 119 120 122 123 123 123 123 122 119 116 112 110 108 105 101 98 95
27 28 29 31 33 34 36 38 39 40 41 42 42 43 44 45 46 47 49 51 53 54 56 58 59 60 62 63 65 67 68 69 69 68 69 69 69 70 70 71 72 72 72 72 72 72 73 73 74 75 77 79 81 83 85 87 90 93 95 97 99 102 104 107 110 112 114 116 118 119 121 122 123 124 124 123 122 120 116 113 110 109 106 103 100 97
28 30 31 33 35 37 38 40 41 42 43 44 44 45 46 47 48 49 51 53 54 55 56 58 60 60 62 64 65 66 68 69 70 70 70 71 71 71 72 73 73 74 74 74 75 74 75 75 76 76 78 80 82 84 86 89 92 94 97 98 100 103 106 108 111 114 115 117 118 120 121 123 124 124 124 124 122 120 117 114 111 109 107 105 102 99
30 32 33 35 37 38 40 42 43 44 44 45 46 47 47 48 49 51 52 54 55 56 57 57 60 61 61 63 65 65 66 69 71 72 72 73 74 74 74 75 75 76 76 77 77 76 76 77 77 78 79 81 83 85 87 90 93 96 98 100 101 104 107 110 112 115 116 118 119 120 122 123 124 125 125 124 123 121 118 114 110 108 107 105 103 101
33 34 35 37 38 40 42 43 44 45 46 46 47 47 48 49 50 52 54 55 57 58 59 58 59 62 61 61 64 65 65 68 70 72 74 75 76 76 77 77 77 78 78 78 78 78 78 79 79 79 81 82 84 86 88 91 94 97 99 101 103 105 108 111 114 116 118 119 120 121 122 123 124 125 125 124 123 120 118 113 110 107 106 104 102 101
35 36 37 39 40 41 43 44 45 46 46 47 47 48 49 50 51 53 55 57 59 61 62 60 59 62 64 62 63 65 66 68 70 73 75 76 77 78 79 79 79 80 80 80 80 80 80 80 80 81 82 83 85 87 89 92 95 98 100 102 104 107 109 112 114 117 119 120 121 122 123 124 125 125 125 124 123 120 117 113 109 106 105 103 102 101
37 38 39 40 41 42 43 44 45 46 47 48 48 49 49 50 51 53 54 57 61 64 65 64 60 61 65 66 65 66 68 69 71 73 75 77 77 78 80 81 81 81 81 81 81 81 81 82 82 82 84 85 86 88 90 93 96 99 102 103 106 108 110 112 115 117 119 120 122 123 124 124 125 125 125 124 123 120 116 112 108 106 104 102 101 101
38 39 40 41 42 43 44 45 46 47 48 49 49 50 51 51 51 53 53 54 58 64 67 67 64 62 64 68 67 68 68 70 72 74 76 77 78 79 80 81 82 82 83 83 83 83 83 83 83 84 85 86 87 89 92 94 97 100 103 105 107 109 111 113 115 118 120 121 122 123 124 125 125 126 125 124 123 120 116 112 108 106 104 102 101 100
40 41 42 43 44 45 45 46 47 48 49 50 51 52 53 54 54 55 55 55 56 61 66 69 69 65 65 69 70 70 70 71 72 74 76 78 79 80 80 81 82 83 83 84 84 85 85 85 85 85 86 87 89 91 93 96 99 101 104 106 108 110 112 114 116 118 120 121 123 124 125 125 126 126 126 125 122 119 116 112 108 106 104 102 101 100
41 43 43 44 45 46 47 47 48 48 49 51 52 53 55 56 57 58 59 60 59 60 64 69 70 67 66 68 70 71 71 71 72 74 76 78 79 80 81 82 82 83 84 85 86 86 86 86 86 86 87 88 90 92 94 97 100 103 105 107 109 111 113 114 116 119 121 122 123 125 125 126 126 126 126 125 122 119 116 112 108 106 104 102 101 101
43 44 45 46 47 48 48 49 49 50 50 52 53 54 56 57 59 60 61 62 62 62 63 68 72 69 66 68 70 71 72 72 72 74 76 78 80 81 83 83 83 84 85 86 86 87 87 86 86 87 88 89 91 93 96 99 101 104 106 107 109 112 113 115 117 119 121 123 124 125 126 126 127 126 126 125 122 119 115 112 108 106 104 102 101 101
44 46 47 48 49 50 50 51 52 53 53 53 54 55 57 58 60 62 63 64 64 64 64 67 73 73 68 68 70 71 72 73 74 76 77 79 81 82 84 85 85 85 86 86 87 87 87 87 87 87 89 90 92 94 97 100 103 105 106 108 110 112 114 116 118 120 122 123 125 126 127 127 127 127 126 124 122 119 115 111 108 106 104 102 101 100
47 48 49 50 51 52 53 53 54 56 56 56 56 57 58 60 61 63 66 67 67 68 66 67 74 78 73 71 72 73 74 74 75 77 79 80 82 84 85 86 86 86 87 87 87 88 88 87 87 88 89 91 93 95 98 101 104 105 107 109 111 113 115 116 118 120 122 123 125 126 127 128 127 127 126 124 122 118 114 111 107 105 103 101 100 100
49 50 52 52 52 54 55 56 56 58 59 59 59 59 60 61 63 65 67 70 70 72 71 68 73 80 78 75 76 76 76 76 76 77 79 81 83 85 85 86 87 87 87 87 88 88 88 88 88 89 90 92 94 96 99 102 104 106 108 109 111 114 115 117 118 120 122 123 125 126 127 128 127 126 126 124 121 117 113 110 106 104 103 101 100 99
52 53 55 55 55 55 56 57 58 59 61 63 62 62 62 63 64 66 68 71 72 75 76 72 73 80 82 79 80 80 79 79 79 78 79 81 84 86 86 87 87 88 88 88 88 88 88 88 88 90 91 93 95 98 100 103 105 107 109 110 112 114 116 117 119 120 122 123 125 126 127 128 127 126 125 123 120 116 112 109 105 103 102 100 99 98
54 55 57 59 59 59 59 59 60 61 63 65 66 66 66 66 67 68 70 71 73 75 78 77 75 80 84 82 82 83 82 82 82 81 81 82 84 86 87 88 88 88 88 88 88 88 88 88 89 90 92 94 96 99 101 104 106 108 110 111 113 115 117 118 120 121 122 123 125 126 127 127 127 126 125 122 119 115 111 108 104 102 101 100 98 97
57 57 58 60 62 63 63 62 62 62 64 67 69 69 70 70 70 71 73 73 74 76 79 80 77 80 85 84 83 84 84 85 85 84 83 83 85 87 88 88 89 89 89 89 89 89 88 88 89 91 93 95 97 100 102 105 107 109 111 112 114 116 118 119 121 122 122 123 124 125 126 127 126 125 124 121 118 114 110 107 103 101 100 99 98 97
59 60 60 60 62 66 67 67 66 65 66 69 72 73 74 73 73 74 76 76 77 77 80 83 80 79 85 86 85 87 87 87 89 88 86 85 85 87 89 89 90 90 90 90 89 89 88 89 90 91 93 96 98 101 103 105 107 109 111 113 114 116 119 120 121 122 122 123 124 125 126 126 125 124 122 120 116 112 109 105 102 99 99 98 97 96
62 63 63 62 62 64 68 70 69 68 68 70 73 76 76 76 75 75 77 78 78 78 80 84 82 80 86 88 87 89 89 89 91 92 90 88 87 88 90 90 90 90 90 90 89 89 89 89 91 92 94 96 99 101 103 105 107 109 111 112 114 116 118 120 121 121 122 122 123 124 125 125 124 123 121 118 115 111 107 104 101 98 97 97 96 95
64 65 67 66 64 64 66 69 69 67 67 70 73 76 77 77 76 77 79 79 80 79 80 85 84 82 86 88 87 90 92 91 93 93 92 90 89 89 91 91 91 91 91 90 89 89 90 90 92 94 95 97 99 101 103 104 106 108 110 112 113 115 117 119 120 121 122 122 122 123 124 124 123 121 119 116 113 109 106 103 100 97 96 96 95 94
65 66 69 69 69 69 70 72 72 70 69 71 74 78 79 79 78 80 81 82 83 81 82 86 86 84 87 88 87 90 91 91 92 93 92 91 89 90 92 91 91 91 91 90 90 90 91 92 93 95 97 99 100 102 103 104 106 107 109 111 113 115 117 119 120 121 122 122 122 123 123 123 122 120 118 114 111 107 104 101 98 96 95 95 94 93
67 67 70 71 71 72 74 77 77 75 74 75 77 81 83 82 81 83 84 85 85 84 84 86 86 86 89 89 88 90 91 91 92 93 93 91 89 90 92 92 91 92 91 91 91 92 93 94 95 97 99 101 102 103 104 105 106 108 109 111 113 115 117 119 120 121 122 123 123 123 122 122 121 119 116 112 109 105 102 100 97 95 94 94 93 92
71 70 72 73 72 74 77 79 80 79 78 78 81 85 86 85 85 85 86 88 87 86 86 86 86 87 90 90 88 90 91 91 92 94 94 92 90 90 92 92 92 92 93 93 94 94 95 95 96 98 100 102 103 104 104 106 107 108 110 111 113 116 117 119 120 121 122 123 122 122 122 121 119 117 114 111 107 104 100 98 96 94 93 92 92 91
75 74 74 75 73 75 79 81 82 82 81 82 84 88 90 88 88 88 88 89 89 88 88 87 86 87 90 90 89 90 91 92 93 95 96 94 91 91 93 93 93 94 95 96 96 97 97 98 98 100 102 103 104 105 105 106 108 109 110 112 114 116 118 119 120 121 121 122 121 121 121 120 118 115 112 109 105 102 99 96 94 93 92 91 91 90
79 78 79 79 76 76 80 83 84 84 84 85 87 91 92 91 90 89 89 90 90 89 88 86 86 87 89 89 89 89 90 92 93 95 96 95 92 93 95 95 95 96 97 98 98 98 99 100 101 102 103 104 105 106 106 107 108 109 111 113 115 117 118 118 119 120 120 120 120 120 119 118 116 113 110 107 103 100 97 95 93 92 90 90 89 89
82 83 83 83 81 79 82 85 85 86 87 88 90 92 93 93 91 90 89 90 90 89 87 85 86 88 89 89 89 89 89 91 93 96 98 96 93 94 97 97 98 98 99 99 99 100 101 102 103 103 104 105 106 107 107 108 109 110 111 113 116 117 118 118 119 119 119 119 118 118 117 115 113 110 107 104 101 98 95 93 91 90 89 88 88 88
86 86 87 87 85 83 85 87 87 87 88 90 93 94 94 93 92 90 89 89 90 89 86 86 88 90 90 90 90 89 88 89 93 97 100 98 95 95 98 99 100 100 100 101 101 102 103 104 105 105 105 106 107 108 108 109 110 111 112 114 116 117 118 118 118 118 118 117 116 115 114 112 109 107 105 102 99 96 93 91 90 89 88 86 86 86
89 90 90 90 89 87 88 89 89 88 88 91 95 96 94 93 92 90 88 88 90 89 86 87 90 92 92 93 93 91 89 89 92 98 103 102 99 98 99 100 101 101 102 103 103 104 105 105 106 106 106 108 108 109 109 110 111 112 113 115 117 117 118 118 118 118 117 115 114 113 111 108 106 104 102 100 97 94 92 90 88 87 86 85 84 84
92 92 92 93 92 91 90 91 90 87 87 91 97 98 95 94 93 90 87 88 91 90 87 88 92 93 94 95 96 95 93 91 92 98 104 105 103 102 102 102 102 103 104 105 105 106 106 107 107 108 108 109 109 110 110 111 112 113 114 115 117 117 117 117 117 116 115 114 112 110 107 104 102 101 99 97 95 92 90 88 87 86 85 84 83 83
93 94 94 94 94 93 92 92 91 88 87 92 98 99 97 96 95 92 86 87 92 93 90 91 94 95 96 98 98 98 96 94 94 98 104 106 105 105 105 104 105 105 106 107 107 107 108 108 108 109 109 110 110 111 112 112 113 114 115 116 116 116 116 116 115 114 113 111 109 107 103 101 99 98 96 95 93 91 89 88 86 86 84 83 82 82
94 94 95 95 95 95 95 94 93 91 90 94 100 101 99 98 98 94 88 87 92 95 94 95 97 97 99 100 100 100 99 97 96 98 103 105 105 106 107 106 106 107 108 109 109 109 109 109 110 110 111 111 112 112 113 113 114 115 115 115 116 116 115 114 113 112 111 109 106 103 100 98 96 95 94 93 92 90 88 87 86 85 84 83 82 82
95 96 96 97 97 98 99 98 96 95 95 99 103 103 103 102 100 97 92 89 92 96 98 99 100 101 102 102 102 102 102 101 99 99 102 104 105 107 107 107 108 108 109 110 110 110 110 110 111 112 112 112 113 113 114 114 115 115 115 115 114 114 113 112 110 109 107 106 103 100 97 95 94 93 92 92 91 89 88 86 85 85 84 82 81 81
97 98 98 99 101 102 103 103 102 100 101 105 108 107 105 104 102 100 96 92 94 98 101 102 104 105 105 104 104 104 104 104 102 101 103 105 106 108 109 108 109 109 110 111 111 111 112 112 112 113 113 113 114 114 114 114 114 114 113 113 112 111 110 109 107 105 104 102 100 97 95 93 91 91 90 90 90 89 87 85 84 84 83 82 81 81
100 101 101 103 104 106 107 107 106 105 106 111 113 110 107 106 105 103 99 96 97 100 103 104 106 106 107 106 106 105 106 107 106 105 105 107 108 110 111 111 111 111 111 112 112 113 113 113 114 114 113 114 114 114 114 113 113 111 110 110 109 108 107 105 103 101 100 99 97 95 93 91 90 89 89 89 89 88 87 85 83 83 83 82 81 80
102 104 104 105 107 109 110 110 109 107 109 113 115 113 111 110 108 106 103 100 100 102 104 106 107 108 108 108 107 106 107 108 109 108 108 109 110 111 112 113 113 113 113 113 114 114 114 114 114 113 113 113 112 112 112 111 110 108 107 106 105 104 103 101 99 97 96 95 93 92 91 90 89 87 87 87 88 88 86 84 83 82 82 82 82 81
105 106 107 108 109 110 111 111 111 110 111 114 115 115 114 113 111 109 107 104 103 104 105 106 107 108 108 107 107 106 106 107 108 109 110 110 111 112 113 114 115 114 114 114 114 114 113 113 112 112 111 110 110 109 108 108 106 105 103 102 101 100 98 96 95 94 93 91 90 89 89 89 88 87 86 86 86 87 86 84 82 81 81 82 82 81
106 108 109 109 110 111 111 111 111 111 112 113 114 115 115 113 112 110 107 103 102 103 104 103 104 106 106 105 105 105 105 106 106 107 108 108 109 110 112 113 113 113 113 112 112 111 111 110 109 108 108 107 106 105 105 104 102 101 99 98 97 96 94 92 91 90 89 89 88 86 86 86 87 86 86 85 85 86 86 84 82 81 81 81 82 81
104 107 109 109 109 110 111 109 108 109 111 111 112 113 114 112 111 109 105 100 99 99 100 100 100 102 103 103 102 102 102 102 103 104 104 104 106 107 108 109 110 109 109 109 108 107 107 106 105 105 104 104 103 102 101 100 98 97 95 94 93 93 91 90 88 87 87 86 85 84 84 84 85 85 85 85 84 85 85 84 82 80 80 80 81 81
99 102 104 105 105 106 107 105 104 105 106 108 110 112 112 111 110 108 105 101 98 97 97 97 97 98 99 99 99 99 99 99 99 100 100 101 102 103 104 105 106 105 105 105 104 104 103 102 101 101 101 100 99 98 97 96 95 93 91 90 90 90 89 87 86 85 84 84 83 82 82 83 84 84 84 84 84 84 84 84 82 80 79 80 80 80
95 97 99 100 100 101 100 99 100 100 100 102 106 108 108 108 107 106 105 102 99 97 96 96 96 96 96 96 96 96 96 96 95 96 96 97 98 99 100 101 102 102 102 102 101 101 100 99 98 98 98 97 96 94 93 93 91 89 88 87 87 87 86 85 83 82 82 82 82 81 81 82 83 83 83 84 84 83 83 83 82 80 79 79 79 80
93 94 95 96 97 98 96 94 95 96 95 97 101 104 105 105 105 105 104 102 100 98 96 96 96 95 94 94 93 93 93 93 93 93 93 93 94 95 97 98 99 99 100 99 99 98 97 97 96 95 94 94 93 91 90 89 88 86 84 84 85 85 85 83 81 80 80 80 80 81 81 82 82 82 82 83 83 82 81 82 81 79 78 78 78 79
91 91 91 93 94 95 93 91 91 92 90 92 96 98 99 100 100 101 102 101 99 97 95 94 94 93 92 91 91 91 91 92 92 92 92 92 93 94 95 96 97 97 97 97 97 96 94 93 92 91 91 91 90 89 88 87 85 83 82 82 83 83 83 82 80 79 79 80 80 81 81 81 81 81 81 81 81 81 80 80 80 79 77 77 77 78
89 88 88 90 91 91 90 88 90 90 88 88 92 95 95 95 95 97 99 99 98 96 94 93 93 92 91 90 89 89 89 90 91 91 91 92 92 93 94 94 95 95 94 94 93 93 91 90 89 88 89 89 88 87 85 84 83 81 80 80 81 81 81 80 79 78 79 80 81 81 81 81 80 79 79 79 79 79 78 78 78 78 77 76 76 76
88 86 87 88 89 89 87 87 89 89 86 84 86 89 91 91 91 92 94 95 95 94 92 91 91 91 91 92 91 89 88 89 89 90 91 91 91 91 91 91 91 92 92 91 90 89 88 87 86 86 86 87 86 85 84 82 82 80 78 78 79 79 79 79 78 77 78 79 80 80 80 80 79 78 76 76 76 76 77 77 77 77 77 76 74 74
88 87 87 87 88 87 87 87 88 88 86 84 84 85 86 87 87 88 89 90 90 90 89 88 87 86 87 89 90 90 89 88 89 89 89 89 90 89 88 89 88 88 88 88 88 87 86 85 84 84 84 85 84 83 82 81 80 79 77 76 77 77 78 78 78 77 77 78 79 79 79 79 78 76 74 72 72 73 74 75 75 76 76 75 73 73
Wind_Direction
348 351 360 353 342 347 351 351 351 348 347 347 344 340 339 338 337 337 335 333 332 333 334 336 336 337 338 338 339 340 341 342 343 343 343 343 343 343 343 344 344 343 343 342 342 342 341 340 339 339 339 338 338 338 340 342 343 344 344 345 346 347 347 348 348 349 350 351 352 352 353 354 354 355 355 356 355 354 353 351 351 351 351 352 351 351
344 350 348 339 337 344 348 349 348 345 344 343 339 337 336 336 336 335 333 331 331 332 333 334 335 336 337 337 339 340 342 342 343 343 343 342 342 343 343 343 342 342 342 342 342 342 341 340 340 340 339 339 339 339 341 342 343 344 344 345 346 347 347 348 348 349 350 351 352 352 353 353 354 355 355 355 355 355 353 352 351 351 351 351 351 351
344 341 333 330 335 340 344 346 344 341 340 339 336 334 334 334 334 333 331 330 330 332 333 334 335 336 337 338 339 340 342 342 343 343 343 342 342 342 343 342 341 341 341 342 342 342 341 341 341 340 340 340 340 340 341 343 344 344 344 345 346 347 347 348 349 349 350 351 352 352 353 353 354 354 355 355 355 355 353 352 351 350 351 351 351 351
332 326 325 329 333 337 341 343 341 339 337 336 333 332 332 332 332 331 330 330 331 332 334 334 335 336 337 338 339 340 341 342 342 342 342 341 341 342 342 341 340 340 341 342 342 342 341 341 341 341 340 340 340 341 342 343 344 344 344 345 346 347 347 348 349 350 350 351 352 352 353 353 353 354 355 355 355 355 354 352 351 350 350 351 351 351
323 322 324 329 333 336 339 340 338 337 335 333 330 329 330 330 330 330 329 330 332 333 334 335 336 337 338 338 338 339 340 341 341 341 341 340 340 341 341 340 340 340 341 342 342 342 342 341 341 341 341 341 341 341 342 343 344 344 344 344 345 347 347 348 349 350 350 351 351 352 352 353 353 354 354 355 355 355 354 353 351 350 350 350 351 351
322 323 327 331 334 336 338 337 335 333 331 329 327 327 328 329 330 330 330 331 333 333 334 336 337 337 337 337 338 338 339 340 340 339 339 339 340 340 339 339 339 340 341 341 342 342 342 342 341 341 341 341 340 340 341 342 343 343 344 344 345 346 347 348 349 350 350 351 351 352 352 352 353 353 354 354 354 354 354 353 351 349 349 350 351 351
323 325 329 332 334 335 335 333 331 330 328 327 326 327 328 329 329 330 331 332 332 333 334 335 336 336 337 337 337 338 338 338 338 338 338 338 339 339 338 339 339 340 341 341 342 342 342 342 341 341 340 340 340 340 341 342 342 343 343 344 345 346 347 348 349 350 350 351 351 351 352 352 352 353 353 354 354 354 354 353 351 349 349 350 350 351
324 327 330 332 333 333 331 329 328 328 327 326 326 327 328 329 329 330 331 331 331 332 333 334 335 335 336 336 337 337 337 336 336 336 337 337 338 338 338 338 339 340 341 341 342 342 342 341 341 340 340 340 340 340 341 342 342 342 343 345 346 346 347 348 349 349 350 350 351 351 351 352 352 352 353 353 354 354 354 353 352 350 349 349 350 350
326 328 329 330 329 328 327 326 326 327 326 326 327 327 328 328 329 330 331 330 329 331 332 333 334 335 335 336 336 336 336 334 334 336 336 337 337 337 338 338 339 340 340 341 342 342 342 341 340 340 339 339 339 340 341 341 341 342 343 345 345 346 346 348 349 349 350 350 350 351 351 351 351 352 352 353 353 354 353 353 352 350 349 349 349 350
324 325 325 326 325 325 325 325 325 326 326 326 326 327 327 328 329 329 329 328 328 329 330 332 332 333 334 335 334 334 334 334 334 335 336 336 336 337 337 338 339 339 340 341 342 342 341 340 339 339 339 339 339 340 340 341 341 342 343 344 345 346 346 347 348 349 349 350 350 350 351 351 351 351 352 352 353 353 353 353 352 350 349 349 349 349
321 321 322 323 323 323 324 324 324 325 325 325 325 326 326 327 328 328 327 327 328 328 329 330 331 331 332 333 333 332 333 334 334 335 335 336 336 336 337 338 338 339 339 340 341 341 340 339 339 339 339 339 339 340 340 341 341 342 343 344 345 345 346 347 348 348 349 349 350 350 350 350 351 351 351 352 353 353 353 353 352 351 349 348 348 348
319 320 321 322 322 323 323 323 323 323 324 324 324 325 325 326 326 326 327 328 328 327 327 328 329 329 329 330 331 331 332 333 334 335 335 335 336 336 337 337 337 338 339 339 340 340 340 339 339 339 339 339 339 339 340 340 341 342 342 344 344 345 346 347 348 348 348 349 349 349 350 350 350 350 351 351 352 353 353 352 352 351 349 348 348 348
317 319 320 320 321 321 321 321 321 322 322 322 323 323 323 323 324 325 326 328 328 326 325 325 327 329 328 329 330 331 332 333 334 334 335 334 335 336 336 336 336 337 338 338 339 339 339 338 338 338 338 338 338 339 340 340 341 341 342 343 344 345 346 347 347 347 348 348 348 349 349 349 350 350 350 351 352 352 353 352 351 351 350 349 348 348
316 317 318 318 319 319 319 320 320 320 321 321 321 321 321 321 322 322 323 326 326 325 324 323 325 328 329 328 329 331 332 333 333 334 333 333 334 335 335 335 335 336 337 337 338 338 338 338 338 338 338 338 338 339 339 340 340 341 342 343 343 344 345 346 347 347 347 347 348 348 348 349 349 349 350 351 351 352 352 352 351 351 350 349 348 348
314 315 315 316 317 317 318 318 319 319 320 320 320 320 320 320 321 321 322 323 324 324 323 322 323 326 329 328 328 330 331 332 333 332 332 332 333 334 334 334 335 335 336 337 337 338 338 338 338 338 337 337 338 339 339 340 340 341 341 342 343 343 344 345 346 346 347 347 347 347 347 348 348 349 349 350 351 352 352 352 351 350 349 348 348 347
312 313 313 314 315 315 316 316 317 317 318 318 319 319 319 320 321 322 322 322 323 323 323 322 321 323 327 327 327 328 329 331 331 330 331 331 332 332 332 333 334 335 335 336 337 337 337 337 337 337 337 337 338 338 339 339 340 340 341 342 342 343 344 345 345 346 346 346 346 346 347 347 348 348 349 349 350 351 352 352 351 350 349 348 348 347
312 312 313 313 313 313 314 314 315 315 316 316 317 318 319 319 320 321 321 320 320 322 323 322 319 320 325 325 325 327 328 328 329 329 330 331 331 331 332 332 334 334 335 336 337 337 336 337 337 337 337 337 338 338 338 339 339 340 340 341 341 342 343 344 345 345 346 346 346 346 346 347 347 348 348 349 350 351 352 352 351 350 349 349 348 347
311 311 311 312 312 312 313 313 314 314 314 315 316 316 317 318 319 319 319 318 318 320 322 323 319 317 321 324 324 326 327 327 328 329 330 330 330 331 331 332 333 334 335 336 336 336 336 336 336 336 336 337 337 338 338 338 339 339 340 340 341 341 342 343 344 345 345 345 345 345 345 346 346 347 348 348 349 350 351 352 351 350 349 349 348 348
310 310 310 311 312 312 312 313 313 314 314 314 314 315 316 317 317 317 316 316 318 318 320 324 321 317 319 324 324 325 326 327 329 329 330 330 330 330 331 332 332 333 334 335 335 335 335 335 336 336 336 336 337 337 337 338 338 338 339 339 340 341 342 343 344 344 344 344 344 344 345 345 346 346 347 348 349 350 351 351 351 350 349 349 348 348
309 310 310 309 310 311 311 312 313 313 313 313 313 313 314 315 315 316 316 317 318 318 318 322 323 318 319 323 324 325 326 327 328 329 329 330 330 330 330 331 331 333 334 334 334 334 335 335 335 336 336 336 336 337 337 337 337 337 338 339 339 340 341 342 343 344 344 344 343 344 344 344 345 346 346 347 348 349 350 351 351 350 349 349 348 348
309 309 309 309 309 310 310 311 312 313 313 312 312 312 312 313 314 315 316 317 317 318 317 320 323 321 320 323 324 325 326 326 327 328 329 330 330 329 330 330 331 332 333 333 334 334 334 334 335 335 335 335 336 336 336 336 336 336 337 338 339 339 340 341 342 343 343 343 343 343 343 343 344 345 345 346 347 348 350 351 351 350 349 349 348 348
308 309 310 310 310 309 309 310 311 312 313 312 312 312 312 313 314 315 316 316 316 317 317 319 323 322 321 322 324 324 325 325 325 327 329 330 329 329 329 330 330 331 332 333 333 333 334 334 334 335 335 335 335 335 335 335 335 336 336 337 338 339 339 340 341 342 342 342 342 342 342 342 343 344 345 345 346 348 349 350 351 350 349 349 348 348
307 308 309 310 310 310 309 309 310 311 312 311 311 311 312 313 314 315 314 315 315 316 317 318 321 323 321 321 323 324 324 325 325 327 328 329 329 328 328 329 330 330 331 332 332 333 333 334 334 334 334 334 334 334 334 335 335 335 336 336 337 338 339 339 340 341 341 341 341 341 341 342 342 343 344 344 346 347 348 350 351 350 349 349 348 348
306 306 307 308 310 310 310 310 310 311 313 313 312 312 312 313 314 314 314 314 315 316 317 317 319 322 321 321 323 323 323 325 325 326 327 328 329 328 328 328 329 330 330 331 332 332 333 333 333 333 333 333 333 333 334 334 334 334 335 335 336 337 338 338 339 340 340 340 340 341 341 341 341 342 343 344 345 346 348 349 350 351 350 349 348 348
305 306 305 306 308 309 310 310 310 312 313 313 312 311 310 311 312 312 312 312 313 315 317 316 318 321 321 320 323 323 323 325 325 325 326 327 328 328 327 328 328 329 329 330 331 331 332 332 332 332 332 332 332 332 333 333 333 333 334 334 335 336 336 337 338 338 339 339 340 340 340 340 340 341 342 343 344 346 347 349 350 351 350 349 348 348
305 305 305 305 306 306 306 306 306 308 309 309 309 308 307 308 309 310 310 311 312 314 316 315 317 321 320 320 322 322 323 325 324 323 324 326 327 327 326 327 327 328 328 329 330 330 330 331 330 330 330 330 331 331 332 332 332 332 333 333 334 335 335 336 337 337 338 338 339 339 339 339 339 340 341 342 344 346 347 348 350 351 350 349 348 348
304 305 304 305 306 306 305 304 304 305 307 308 308 306 305 307 309 310 310 311 312 313 315 315 317 320 319 319 322 322 322 323 322 322 323 324 326 326 325 326 326 326 327 327 328 329 329 329 329 329 329 329 329 330 330 331 331 331 331 332 333 334 334 335 336 336 336 337 338 338 338 338 338 339 340 342 343 345 347 348 349 350 350 349 349 348
302 303 303 304 305 306 306 304 304 306 307 308 308 307 306 307 309 310 311 311 312 314 315 315 318 320 319 319 321 321 321 321 321 321 322 323 325 325 324 324 325 325 326 326 327 327 328 328 328 327 327 328 328 329 329 329 330 330 331 331 332 333 334 334 335 335 336 336 337 337 337 338 338 338 339 341 343 345 346 347 349 350 351 350 349 349
301 301 301 301 304 306 305 303 303 305 307 308 309 307 306 308 309 310 310 311 312 314 315 315 318 319 318 319 320 320 320 320 320 320 320 322 324 324 323 323 323 324 324 325 325 326 326 326 326 326 326 327 327 328 328 328 329 329 330 330 331 332 333 333 334 334 335 335 336 336 336 337 337 338 339 340 342 344 346 347 348 350 351 350 349 349
299 299 299 299 301 304 304 303 303 305 307 308 308 307 306 307 308 309 310 311 312 313 314 315 318 318 317 318 319 319 319 319 319 319 319 320 323 323 321 322 322 323 323 324 324 324 325 325 325 325 325 325 326 326 326 327 328 328 329 330 330 331 332 333 333 333 334 334 335 335 335 336 336 337 338 339 341 344 345 346 348 349 350 350 349 349
298 299 299 299 300 303 303 303 303 305 306 307 307 305 305 306 307 308 309 310 311 312 313 315 317 316 316 316 317 318 318 318 318 317 317 319 321 321 320 320 321 321 322 322 322 323 323 323 323 323 324 324 324 325 325 326 327 327 328 329 329 330 331 332 332 332 333 333 334 334 334 335 335 335 337 339 341 343 345 346 347 349 350 350 350 349
298 299 299 299 301 302 302 302 303 304 305 306 304 303 304 304 305 307 308 309 309 311 313 315 316 315 314 315 316 316 317 317 317 316 316 317 320 319 318 319 319 320 320 320 321 321 321 321 321 322 323 323 323 323 324 325 326 326 327 328 328 329 330 331 331 331 332 332 333 334 334 334 334 334 336 338 340 342 344 346 347 349 350 350 350 350
298 299 299 300 301 302 302 301 302 303 304 304 302 301 302 303 304 305 307 308 309 310 313 315 315 314 314 314 314 314 315 316 316 315 314 315 317 317 317 317 318 318 318 318 318 319 319 319 320 321 321 321 322 322 323 324 324 325 326 326 327 328 329 330 330 330 331 331 332 333 333 333 333 333 335 337 339 341 344 345 347 348 349 350 350 350
298 298 299 300 301 301 301 301 302 303 304 303 301 300 301 302 303 304 306 308 308 310 314 315 314 313 313 312 312 312 313 314 314 313 312 313 315 315 315 315 316 316 316 316 316 317 317 318 318 319 320 320 321 321 322 322 323 324 325 325 326 327 328 329 329 329 330 331 331 332 332 332 332 333 334 336 338 341 343 345 346 348 349 350 350 350
298 298 299 300 300 301 300 300 301 302 303 301 299 299 300 302 302 303 307 308 308 310 314 314 311 311 311 310 310 310 311 313 313 312 311 312 314 314 314 314 314 314 314 314 315 315 316 317 317 318 319 319 319 320 320 321 322 323 324 324 325 326 327 327 328 328 329 330 331 331 331 332 332 332 334 335 337 340 342 344 346 347 349 350 351 351
297 298 299 299 300 300 300 300 300 301 301 299 297 298 300 301 302 304 308 310 308 310 312 311 308 308 307 307 307 307 309 311 311 311 310 311 312 312 312 312 312 312 313 313 314 314 314 315 316 316 317 317 318 318 319 320 321 321 322 323 324 325 326 326 327 328 328 329 330 330 331 331 331 332 333 334 337 339 341 343 345 347 348 350 351 351
298 298 298 299 299 299 299 299 300 300 300 298 297 298 299 300 301 304 308 309 308 308 308 306 305 305 304 304 305 306 308 310 310 310 309 309 310 310 310 310 310 311 311 311 312 312 313 314 314 314 315 316 316 317 318 318 319 320 321 322 323 324 325 326 326 327 328 328 329 330 330 331 331 332 333 334 336 339 341 343 345 346 348 350 351 351
298 298 298 299 299 299 298 298 299 299 299 297 296 297 298 299 301 303 305 307 306 305 304 303 302 302 302 303 305 307 308 308 308 308 307 307 307 307 307 308 308 308 309 309 310 311 311 312 312 313 314 314 315 316 316 317 318 319 321 322 322 323 324 325 326 327 327 328 328 329 330 330 331 332 333 334 336 338 340 342 344 346 347 349 351 352
296 297 297 297 297 297 297 297 297 298 297 296 295 296 297 299 300 301 303 304 304 302 301 301 301 301 302 304 305 306 306 306 306 306 305 304 304 304 305 305 306 306 307 308 309 309 309 310 311 312 313 313 314 315 315 316 318 319 320 321 322 322 323 324 325 326 327 327 328 329 329 330 331 332 332 334 335 337 339 342 344 345 346 349 351 352
295 295 296 295 295 295 295 295 296 297 297 295 295 296 298 299 300 300 302 302 301 300 300 300 301 302 303 303 304 304 304 304 304 304 303 302 303 303 304 304 305 306 306 307 308 308 308 309 310 311 312 312 313 314 315 316 317 318 319 320 321 322 323 324 325 326 326 327 327 328 329 330 331 331 332 334 335 336 338 341 343 344 346 348 350 352
293 293 293 293 292 292 293 293 294 295 295 294 295 297 298 298 299 299 300 300 300 300 300 300 301 301 302 302 302 303 303 302 302 303 303 303 303 304 304 305 305 306 306 307 307 307 308 309 310 311 311 312 313 314 315 316 317 318 319 320 321 321 322 323 324 325 325 326 327 328 328 329 330 331 332 334 334 335 337 340 342 344 345 347 349 351
291 291 290 290 289 290 290 291 292 292 293 293 294 295 296 296 297 298 299 300 300 300 300 300 300 300 300 301 301 301 301 301 302 302 303 304 304 304 304 305 305 305 306 306 306 307 308 309 310 310 311 312 313 314 315 316 317 318 319 320 320 321 322 323 324 324 325 325 326 327 328 329 330 331 332 333 334 334 335 338 341 343 345 347 348 350
290 289 288 288 288 288 289 289 290 291 292 292 292 293 294 294 295 296 297 299 299 299 299 299 299 299 299 300 300 301 301 302 302 302 303 303 304 304 304 304 304 304 305 306 306 307 308 309 310 311 312 312 313 314 315 315 316 317 319 320 320 320 321 322 323 324 324 325 325 327 328 328 329 330 331 332 333 333 334 336 339 342 344 346 347 349
290 289 288 288 289 289 289 290 291 292 292 293 293 293 293 294 294 295 297 298 298 297 298 298 298 298 299 300 300 300 301 301 301 301 302 302 302 302 302 303 303 304 305 306 306 307 308 309 310 311 312 312 313 314 314 315 316 317 318 320 320 320 321 322 322 323 323 324 325 326 328 328 328 329 330 331 332 333 333 335 337 340 343 345 347 348
290 289 289 289 290 290 291 292 293 293 294 294 294 294 294 295 296 298 299 299 298 298 298 298 298 298 299 300 300 300 300 301 301 301 302 302 302 302 302 303 303 304 305 305 306 307 308 309 310 311 312 312 313 313 314 314 316 317 318 319 319 319 320 321 321 322 323 323 324 326 327 328 328 329 330 330 331 332 333 333 335 339 342 345 346 348
291 291 291 291 292 293 293 294 294 295 296 296 295 295 296 297 298 299 299 300 300 301 301 301 300 300 300 301 301 301 301 301 301 301 301 302 302 302 302 303 303 304 305 306 307 308 309 310 311 311 312 311 312 312 313 314 315 317 318 319 318 318 319 319 320 322 322 323 324 326 327 327 328 328 329 329 330 331 332 332 334 338 341 344 345 347
293 294 295 296 296 296 296 296 297 298 298 297 296 297 297 298 299 300 301 302 302 303 303 303 303 302 302 302 302 301 301 301 302 302 302 302 302 302 302 303 304 304 305 307 308 309 309 310 311 311 311 310 311 312 313 314 315 316 317 318 317 317 317 318 320 322 322 323 324 326 327 327 327 328 328 329 329 330 330 331 333 336 340 343 345 346
296 298 299 299 298 298 298 300 299 298 297 297 297 297 298 300 301 302 302 303 303 304 304 304 304 304 303 303 303 303 303 303 303 303 303 302 302 303 303 304 305 305 306 307 308 308 309 309 310 310 309 309 310 311 312 313 315 316 317 317 316 316 317 318 320 322 322 323 325 326 326 326 326 327 328 328 328 328 329 330 331 335 338 341 344 345
300 301 300 299 298 298 300 300 299 298 299 299 299 300 301 302 303 303 303 304 304 304 305 305 305 305 305 304 304 304 304 303 303 303 303 303 303 304 304 305 306 306 307 307 307 308 308 308 308 309 309 309 310 311 312 313 314 315 316 315 315 315 316 318 320 321 322 323 324 325 325 325 325 326 327 327 326 327 328 329 330 333 336 339 342 344
302 301 300 299 298 299 300 299 298 299 301 301 300 300 301 302 302 302 302 302 303 303 304 304 304 305 305 305 304 304 303 303 303 303 303 303 304 304 305 305 305 306 306 306 306 306 307 307 308 308 309 309 309 311 312 313 313 313 314 314 314 314 316 317 319 321 322 323 323 323 323 323 324 325 326 326 326 326 327 328 330 332 334 337 340 343
301 300 300 299 299 300 300 299 299 300 300 300 299 299 299 299 300 300 300 300 301 301 302 302 302 302 302 302 303 303 303 303 302 303 303 303 304 304 304 304 304 304 304 305 305 306 307 307 308 309 308 308 309 310 311 312 312 312 313 313 313 314 316 317 319 321 322 322 322 322 322 322 323 324 325 326 326 326 326 328 329 330 333 336 338 341